N24KM KCDW-KORL

Flight info

Callsign N24KM
Flight time N/A
Altitude 40000
Route ELVAE COL WHITE Q409 CRPLR Q85 PBCUP/N0394F430 Q85 LPERD TTHOR3
Aircraft C25B/M-SDE2E3FGHRWXY/LB1

Departure

Time 2026-05-04 22:48
Airport Essex County Airport (KCDW)

Arrival

Time N/A
Airport Orlando Executive Airport (KORL)
Time Latitude Longitude Altitude Speed Heading
2026-05-04 22:22 40.87562 -74.27893 176 ft 0 kts 117°
2026-05-04 22:23 40.87562 -74.27894 176 ft 0 kts 117°
2026-05-04 22:28 40.87563 -74.27894 176 ft 0 kts 117°
2026-05-04 22:36 40.87563 -74.27895 176 ft 0 kts 117°
2026-05-04 22:37 40.87562 -74.27893 176 ft 0 kts 117°
2026-05-04 22:39 40.87562 -74.27894 176 ft 0 kts 117°
2026-05-04 22:42 40.87563 -74.27894 176 ft 0 kts 117°
2026-05-04 22:44 40.87558 -74.27882 176 ft 1 kts 103°
2026-05-04 22:44 40.87558 -74.27881 176 ft 1 kts 96°
2026-05-04 22:45 40.87558 -74.27880 176 ft 0 kts 89°
2026-05-04 22:45 40.87635 -74.27852 176 ft 8 kts 311°
2026-05-04 22:45 40.87672 -74.27881 176 ft 6 kts 25°
2026-05-04 22:46 40.87709 -74.27851 176 ft 7 kts 30°
2026-05-04 22:46 40.87760 -74.27814 177 ft 9 kts 28°
2026-05-04 22:46 40.87814 -74.27774 177 ft 10 kts 29°
2026-05-04 22:46 40.87835 -74.27777 177 ft 0 kts 322°
2026-05-04 22:47 40.87845 -74.27790 177 ft 6 kts 303°
2026-05-04 22:47 40.87850 -74.27828 178 ft 4 kts 232°
2026-05-04 22:47 40.87763 -74.27896 178 ft 47 kts 210°
2026-05-04 22:47 40.87167 -74.28349 242 ft 143 kts 212°
2026-05-04 22:48 40.86160 -74.28966 957 ft 165 kts 194°
2026-05-04 22:48 40.84993 -74.28786 1570 ft 178 kts 166°
2026-05-04 22:48 40.83803 -74.28238 1810 ft 194 kts 166°
2026-05-04 22:48 40.82369 -74.27680 2476 ft 229 kts 169°
2026-05-04 22:49 40.80846 -74.27399 3888 ft 221 kts 184°
2026-05-04 22:49 40.79351 -74.27564 5373 ft 211 kts 189°
2026-05-04 22:49 40.77798 -74.27662 6096 ft 244 kts 186°
2026-05-04 22:49 40.76105 -74.27650 6106 ft 241 kts 182°
2026-05-04 22:50 40.74445 -74.27615 6102 ft 236 kts 185°
2026-05-04 22:50 40.72811 -74.27619 6095 ft 234 kts 185°
2026-05-04 22:50 40.71187 -74.27627 6102 ft 233 kts 185°
2026-05-04 22:50 40.69561 -74.27625 6101 ft 234 kts 184°
2026-05-04 22:51 40.67929 -74.27629 6102 ft 236 kts 185°
2026-05-04 22:51 40.66262 -74.27621 6271 ft 242 kts 184°
2026-05-04 22:51 40.64581 -74.27620 7132 ft 241 kts 185°
2026-05-04 22:51 40.62884 -74.27644 8028 ft 247 kts 185°
2026-05-04 22:52 40.61147 -74.27635 8920 ft 252 kts 184°
2026-05-04 22:52 40.59394 -74.27634 9770 ft 258 kts 185°
2026-05-04 22:52 40.57582 -74.27631 10572 ft 262 kts 185°
2026-05-04 22:52 40.55751 -74.27634 11414 ft 264 kts 185°
2026-05-04 22:53 40.53905 -74.27240 12213 ft 276 kts 168°
2026-05-04 22:53 40.52087 -74.26371 13027 ft 280 kts 165°
2026-05-04 22:53 40.50248 -74.25465 13827 ft 284 kts 165°
2026-05-04 22:53 40.48393 -74.24524 14542 ft 287 kts 165°
2026-05-04 22:54 40.46517 -74.23593 15248 ft 290 kts 165°
2026-05-04 22:54 40.44614 -74.22646 15967 ft 294 kts 165°
2026-05-04 22:54 40.42688 -74.21695 16702 ft 298 kts 165°
2026-05-04 22:54 40.40702 -74.20707 17003 ft 318 kts 165°
2026-05-04 22:55 40.38542 -74.19649 17046 ft 344 kts 164°
2026-05-04 22:55 40.36278 -74.18508 17564 ft 349 kts 163°
2026-05-04 22:55 40.34024 -74.17399 18092 ft 352 kts 166°
2026-05-04 22:55 40.31612 -74.16759 18577 ft 348 kts 180°
2026-05-04 22:56 40.29238 -74.16700 19054 ft 345 kts 191°
2026-05-04 22:56 40.26889 -74.17265 19547 ft 343 kts 198°
2026-05-04 22:56 40.24547 -74.17955 20018 ft 347 kts 198°
2026-05-04 22:56 40.22179 -74.18678 20479 ft 351 kts 199°
2026-05-04 22:57 40.19791 -74.19404 20979 ft 354 kts 198°
2026-05-04 22:57 40.17377 -74.20125 21477 ft 357 kts 198°
2026-05-04 22:57 40.14944 -74.20855 21973 ft 361 kts 198°
2026-05-04 22:57 40.12486 -74.21590 22462 ft 364 kts 198°
2026-05-04 22:58 40.10009 -74.22339 22953 ft 367 kts 198°
2026-05-04 22:58 40.07476 -74.23096 23036 ft 381 kts 198°
2026-05-04 22:58 40.04848 -74.23890 23140 ft 391 kts 197°
2026-05-04 22:58 40.02250 -74.24742 23527 ft 390 kts 203°
2026-05-04 22:59 39.99790 -74.26195 23830 ft 388 kts 212°
2026-05-04 22:59 39.97555 -74.28124 24140 ft 384 kts 222°
2026-05-04 22:59 39.95395 -74.30208 24455 ft 388 kts 219°
2026-05-04 22:59 39.93192 -74.32248 24771 ft 389 kts 220°
2026-05-04 23:00 39.91005 -74.34337 25084 ft 391 kts 221°
2026-05-04 23:00 39.88809 -74.36445 25402 ft 393 kts 221°
2026-05-04 23:00 39.86600 -74.38552 25717 ft 395 kts 220°
2026-05-04 23:00 39.84368 -74.40656 25987 ft 397 kts 220°
2026-05-04 23:01 39.82173 -74.42765 26339 ft 395 kts 222°
2026-05-04 23:01 39.80214 -74.45201 26845 ft 387 kts 231°
2026-05-04 23:01 39.78346 -74.47707 27370 ft 385 kts 229°
2026-05-04 23:01 39.76453 -74.50156 27895 ft 383 kts 230°
2026-05-04 23:02 39.74591 -74.52629 28429 ft 382 kts 230°
2026-05-04 23:02 39.72743 -74.55098 28982 ft 381 kts 230°
2026-05-04 23:02 39.70893 -74.57556 29543 ft 380 kts 230°
2026-05-04 23:02 39.69036 -74.59996 30101 ft 380 kts 230°
2026-05-04 23:03 39.67211 -74.62414 30583 ft 379 kts 230°
2026-05-04 23:03 39.65363 -74.64853 31075 ft 379 kts 230°
2026-05-04 23:03 39.63517 -74.67297 31580 ft 379 kts 230°
2026-05-04 23:03 39.61668 -74.69728 32096 ft 379 kts 230°
2026-05-04 23:04 39.59821 -74.72166 32619 ft 379 kts 230°
2026-05-04 23:04 39.57975 -74.74594 33152 ft 378 kts 230°
2026-05-04 23:04 39.56129 -74.77024 33704 ft 378 kts 230°
2026-05-04 23:04 39.54284 -74.79448 34199 ft 377 kts 230°
2026-05-04 23:05 39.52444 -74.81866 34670 ft 376 kts 230°
2026-05-04 23:05 39.50609 -74.84274 35149 ft 375 kts 230°
2026-05-04 23:05 39.48804 -74.86639 35628 ft 373 kts 230°
2026-05-04 23:05 39.46987 -74.89023 36115 ft 371 kts 230°
2026-05-04 23:06 39.45176 -74.91391 36618 ft 369 kts 229°
2026-05-04 23:06 39.43378 -74.93747 37143 ft 366 kts 229°
2026-05-04 23:06 39.41592 -74.96077 37675 ft 364 kts 229°
2026-05-04 23:06 39.39822 -74.98393 38225 ft 361 kts 229°
2026-05-04 23:07 39.38063 -75.00686 38739 ft 357 kts 229°
2026-05-04 23:07 39.36321 -75.02960 39185 ft 354 kts 229°
2026-05-04 23:07 39.34616 -75.05182 39629 ft 351 kts 229°
2026-05-04 23:07 39.32904 -75.07411 40033 ft 350 kts 229°
2026-05-04 23:08 39.29348 -75.11969 40049 ft 370 kts 226°
2026-05-04 23:08 39.25487 -75.16453 40058 ft 377 kts 226°
2026-05-04 23:09 39.21581 -75.21043 40067 ft 382 kts 226°